Rhinelander, WI

5:45 AM CDT on June 25, 2017 (GMT -0500)
Rhinelander-Oneida County

Weather History for KRHI - October, 2012

Change the Weather History Date:

Saturday, October 6, 2012

  Actual Average Record
Temperature  
Mean Temperature 36 °F 47 °F  
Max Temperature 41 °F 58 °F 84 °F (1963)
Min Temperature 31 °F 37 °F 19 °F (2001)
Degree Days  
Heating Degree Days 29 18  
Month to date heating degree days 106 103  
Since 1 July heating degree days 536 535  
Cooling Degree Days 0 0  
Month to date cooling degree days 0 0  
Year to date cooling degree days 373 259  
Moisture  
Dew Point 28 °F    
Average Humidity 67    
Maximum Humidity 89    
Minimum Humidity 45    
Precipitation  
Precipitation T in 0.12 in 2.80 in (1911)
Month to date precipitation T 0.72  
Year to date precipitation 24.36 25.80  
Snow  
Snow T in - T in (2012)
Month to date snowfall T  
Since 1 July snowfall T  
Since 1 September snowfall T  
Snow Depth 0.00 in    
Sea Level Pressure  
Sea Level Pressure 30.08 in    
Wind  
Wind Speed 7 mph (WNW)    
Max Wind Speed 16 mph    
Max Gust Speed 22 mph    
Visibility 8 miles    
Events Snow    
T = Trace of Precipitation, MM = Missing Value Source: NWS Daily Summary

Daily Weather History Graph

Daily Weather History Graph

Search for Another Location

Airport or City:

Trip Planner

Search our weather history database for the weather conditions in past years. The results will help you decide how hot, cold, wet, or windy it might be!

Date:

Astronomy

Oct. 06, 2012 Rise Set
Actual Time 7:03 AM CDT 6:27 PM CDT
Civil Twilight 6:33 AM CDT 6:57 PM CDT
Nautical Twilight 5:59 AM CDT 7:31 PM CDT
Astronomical Twilight 5:24 AM CDT 8:06 PM CDT
Moon 10:29 PM CDT (10/6) 1:11 PM CDT (10/6)
Length of Visible Light 12h 23m
Length of Day
11h 24m
Waning Gibbous, 65% of the Moon is Illuminated
Oct 6
Waning Gibbous
Oct 8
Last Quarter
Oct 15
New
Oct 21
First Quarter
Oct 29
Full

Hourly Weather History & Observations

Time (CDT) Temp. Windchill Dew Point Humidity Pressure Visibility Wind Dir Wind Speed Gust Speed Precip Events Conditions
12:53 AM 35.1 °F 25.5 °F 28.9 °F 78% 29.99 in 10.0 mi West 15.0 mph 28.8 mph N/A   Overcast
1:29 AM 35.6 °F 27.5 °F 28.4 °F 75% 29.94 in 10.0 mi WNW 11.5 mph 19.6 mph N/A   Overcast
1:53 AM 34.0 °F 25.5 °F 30.0 °F 85% 29.99 in 8.0 mi West 11.5 mph 20.7 mph 0.00 in Snow Light Snow
2:00 AM 33.8 °F 25.3 °F 30.2 °F 87% 29.94 in 9.0 mi WNW 11.5 mph - 0.00 in Snow Light Snow
2:07 AM 33.8 °F 24.8 °F 30.2 °F 87% 29.94 in 8.0 mi West 12.7 mph 19.6 mph 0.00 in   Overcast
2:40 AM 33.8 °F 25.8 °F 30.2 °F 87% 29.94 in 4.0 mi West 10.4 mph - 0.00 in Snow Light Snow
2:53 AM 33.1 °F 26.1 °F 30.9 °F 92% 30.00 in 3.0 mi WNW 8.1 mph 17.3 mph 0.00 in Snow Light Snow
3:18 AM 33.8 °F 27.7 °F 30.2 °F 87% 29.95 in 4.0 mi West 6.9 mph - 0.00 in Snow Light Snow
3:53 AM 33.1 °F 26.9 °F 30.9 °F 92% 30.01 in 9.0 mi West 6.9 mph - 0.00 in   Overcast
4:05 AM 33.8 °F 27.7 °F 30.2 °F 87% 29.96 in 10.0 mi WNW 6.9 mph - N/A   Overcast
4:37 AM 33.8 °F 28.6 °F 30.2 °F 87% 29.97 in 10.0 mi WNW 5.8 mph - N/A   Overcast
4:53 AM 33.1 °F 27.7 °F 30.9 °F 92% 30.02 in 9.0 mi West 5.8 mph - N/A   Overcast
5:04 AM 33.8 °F 28.6 °F 30.2 °F 87% 29.97 in 6.0 mi Variable 5.8 mph 17.3 mph 0.00 in Snow Light Snow
5:26 AM 33.8 °F 30.8 °F 30.2 °F 87% 29.98 in 10.0 mi WNW 3.5 mph - 0.00 in   Overcast
5:53 AM 32.0 °F 25.6 °F 28.9 °F 88% 30.04 in 10.0 mi NW 6.9 mph - 0.00 in   Mostly Cloudy
6:53 AM 32.0 °F 27.5 °F 28.9 °F 88% 30.07 in 9.0 mi WNW 4.6 mph - 0.00 in   Overcast
7:53 AM 33.1 °F 27.7 °F 28.9 °F 85% 30.09 in 10.0 mi WNW 5.8 mph - N/A   Overcast
8:42 AM 33.8 °F 27.7 °F 30.2 °F 87% 30.05 in 6.0 mi NW 6.9 mph - 0.00 in Snow Light Snow
8:53 AM 34.0 °F 28.0 °F 30.0 °F 85% 30.11 in 10.0 mi West 6.9 mph - 0.00 in   Overcast
9:36 AM 33.8 °F 27.7 °F 30.2 °F 87% 30.07 in 6.0 mi Variable 6.9 mph - 0.00 in   Overcast
9:50 AM 35.6 °F 32.8 °F 30.2 °F 81% 30.08 in 9.0 mi Variable 3.5 mph - 0.00 in   Scattered Clouds
9:53 AM 36.0 °F 31.1 °F 30.0 °F 79% 30.13 in 10.0 mi Variable 5.8 mph - 0.00 in   Scattered Clouds
10:14 AM 35.6 °F 31.7 °F 28.4 °F 75% 30.09 in 8.0 mi Variable 4.6 mph - 0.00 in Snow Light Snow
10:40 AM 37.4 °F 30.8 °F 28.4 °F 70% 30.09 in 10.0 mi WNW 9.2 mph - 0.00 in   Overcast
10:53 AM 36.0 °F 29.6 °F 28.0 °F 73% 30.15 in 6.0 mi NNW 8.1 mph 18.4 mph 0.00 in Snow Light Snow
10:58 AM 35.6 °F 28.0 °F 28.4 °F 75% 30.10 in 1.8 mi North 10.4 mph 18.4 mph 0.00 in Snow Light Snow
11:12 AM 33.8 °F 25.8 °F 28.4 °F 81% 30.10 in 3.0 mi NW 10.4 mph 18.4 mph 0.00 in Snow Light Snow
11:25 AM 37.4 °F 32.1 °F 28.4 °F 70% 30.10 in 10.0 mi NW 6.9 mph 19.6 mph 0.00 in   Overcast
11:53 AM 37.9 °F 30.5 °F 27.0 °F 65% 30.16 in 10.0 mi NW 11.5 mph 16.1 mph 0.00 in   Overcast
12:00 PM 37.4 °F 29.8 °F 26.6 °F 65% 30.11 in 10.0 mi North 11.5 mph 18.4 mph N/A   Overcast
12:12 PM 37.4 °F 31.4 °F 23.0 °F 56% 30.12 in 10.0 mi NNW 8.1 mph 20.7 mph N/A   Overcast
12:53 PM 37.9 °F 30.5 °F 21.9 °F 53% 30.17 in 10.0 mi NNW 11.5 mph 21.9 mph N/A   Overcast
1:53 PM 39.0 °F 33.4 °F 21.9 °F 50% 30.16 in 10.0 mi North 8.1 mph - N/A   Overcast
2:53 PM 41.0 °F 35.8 °F 21.0 °F 45% 30.17 in 10.0 mi NNW 8.1 mph 17.3 mph N/A   Overcast
3:53 PM 37.9 °F 30.0 °F 21.9 °F 53% 30.17 in 10.0 mi NW 12.7 mph 17.3 mph N/A   Overcast
4:53 PM 37.9 °F 34.4 °F 23.0 °F 55% 30.18 in 10.0 mi WNW 4.6 mph - N/A   Overcast
7:53 PM 35.1 °F 32.2 °F 26.1 °F 70% 30.21 in 10.0 mi West 3.5 mph - N/A   Overcast
8:53 PM 33.1 °F 30.0 °F 26.1 °F 75% 30.22 in 10.0 mi West 3.5 mph - N/A   Overcast
9:53 PM 33.1 °F 28.7 °F 25.0 °F 72% 30.21 in 10.0 mi West 4.6 mph - N/A   Overcast
10:53 PM 32.0 °F 27.5 °F 26.1 °F 79% 30.21 in 10.0 mi West 4.6 mph - N/A   Overcast
11:53 PM 32.0 °F 28.7 °F 26.1 °F 79% 30.20 in 10.0 mi West 3.5 mph - N/A   Overcast